Location: Rounton
(54.4000°N, 1.3500°W)
Time: 09:44:27
(UTC+00:00)

Tiros 1 despin weight - All Passes

Search period start: 25 February 2024 00:00
Search period end: 06 March 2024 00:00
Orbit: 581 x 624 km, 48.2° (Epoch: 24 February)

Date Brightness Start Highest point End Pass type
(mag) Time Alt. Az. Time Alt. Az. Time Alt. Az.
25 Feb - 10:40:36 10° SSW 10:43:47 20° SSE 10:46:58 10° ESE daylight
25 Feb - 12:20:18 10° WSW 12:24:15 35° S 12:28:13 10° ESE daylight
25 Feb - 14:01:00 10° WSW 14:04:52 32° SSW 14:08:45 10° SE daylight
25 Feb - 15:42:36 10° WSW 15:45:13 16° SSW 15:47:51 10° S daylight
26 Feb - 10:51:25 10° SW 10:55:01 26° SSE 10:58:38 10° ESE daylight
26 Feb - 12:31:35 10° WSW 12:35:35 37° S 12:39:35 10° ESE daylight
26 Feb - 14:12:30 10° WSW 14:16:10 27° SSW 14:19:49 10° SE daylight
26 Feb - 15:55:25 10° SW 15:56:20 11° SW 15:57:14 10° SSW daylight
27 Feb - 09:23:30 10° S 09:25:58 15° SSE 09:28:25 10° ESE daylight
27 Feb - 11:02:26 10° SW 11:06:18 31° SSE 11:10:08 10° ESE daylight
27 Feb - 12:42:56 10° WSW 12:46:54 35° S 12:50:53 10° ESE daylight
27 Feb - 14:24:07 10° WSW 14:27:23 21° SSW 14:30:39 10° SSE daylight
28 Feb - 09:33:53 10° SSW 09:37:07 20° SSE 09:40:21 10° ESE daylight
28 Feb - 11:13:37 10° WSW 11:17:35 35° S 11:21:33 10° ESE daylight
28 Feb - 12:54:20 10° WSW 12:58:13 32° SSW 13:02:04 10° SE daylight
28 Feb - 14:35:59 10° WSW 14:38:32 15° SSW 14:41:05 10° S daylight
29 Feb - 08:07:39 10° SSE 08:08:10 10° SE 08:08:41 10° SE daylight
29 Feb - 09:44:40 10° SW 09:48:19 26° SSE 09:51:57 10° ESE daylight
29 Feb - 11:24:53 10° WSW 11:28:53 37° S 11:32:54 10° ESE daylight
29 Feb - 13:05:49 10° WSW 13:09:28 26° SSW 13:13:05 10° SE daylight
29 Feb - 14:49:04 10° SW 14:49:37 10° SW 14:50:08 10° SSW daylight
01 Mar - 08:16:41 10° S 08:19:14 15° SSE 08:21:47 10° ESE daylight
01 Mar - 09:55:41 10° SW 09:59:34 32° SSE 10:03:26 10° ESE daylight
01 Mar - 11:36:13 10° WSW 11:40:11 35° S 11:44:09 10° ESE daylight
01 Mar - 13:17:25 10° WSW 13:20:39 20° SSW 13:23:53 10° SSE daylight
02 Mar - 08:27:04 10° SSW 08:30:21 21° SSE 08:33:38 10° ESE daylight
02 Mar - 10:06:51 10° WSW 10:10:50 35° S 10:14:49 10° ESE daylight
02 Mar - 11:47:36 10° WSW 11:51:27 31° SSW 11:55:18 10° SE daylight
02 Mar - 13:29:18 10° WSW 13:31:47 15° SSW 13:34:14 10° S daylight
03 Mar - 07:00:26 10° SSE 07:01:22 11° SE 07:02:18 10° SE daylight
03 Mar - 08:37:51 10° SW 08:41:32 27° SSE 08:45:12 10° ESE daylight
03 Mar - 10:18:05 10° WSW 10:22:07 37° S 10:26:07 10° ESE daylight
03 Mar - 11:59:03 10° WSW 12:02:40 26° SSW 12:06:17 10° SE daylight
04 Mar - 07:09:46 10° S 07:12:25 16° SSE 07:15:02 10° ESE daylight
04 Mar - 08:48:51 10° SW 08:52:45 32° SSE 08:56:38 10° ESE daylight
04 Mar - 10:29:23 10° WSW 10:33:23 35° S 10:37:20 10° ESE daylight
04 Mar - 12:10:38 10° WSW 12:13:50 20° SSW 12:17:01 10° SSE daylight
05 Mar - 07:20:10 10° SSW 07:23:31 21° SSE 07:26:51 10° ESE daylight
05 Mar - 08:59:58 10° WSW 09:04:00 36° S 09:07:59 10° ESE daylight
05 Mar - 10:40:45 10° WSW 10:44:37 31° SSW 10:48:27 10° SE daylight
05 Mar - 12:22:30 10° WSW 12:24:54 15° SSW 12:27:19 10° S daylight
